• In Hungary
  • List of Countries
  • For 7 days
  • Water Temperature
  • Satellite Maps
  • Weather Map
  • News
  • Weather Widgets
  • user-avatar
    Login

    Hourly Weather Konchinka

    Today, 20 September, Thursday

    Time Temperature Precipitation Wind Pressure Humidity
    00:00 +15°C° 0 mm 4 mps 744 mmHg 90%
    01:00 +15°C° 0 mm 4 mps 744 mmHg 92%
    02:00 +14°C° 0 mm 4 mps 744 mmHg 93%
    03:00 +14°C° 0 mm 2 mps 744 mmHg 96%
    04:00 +13°C° 0 mm 3 mps 744 mmHg 96%
    05:00 +13°C° 0 mm 3 mps 743 mmHg 96%
    06:00 +13°C° 0 mm 4 mps 743 mmHg 96%
    07:00 +15°C° 0 mm 4 mps 743 mmHg 92%
    08:00 +17°C° 0 mm 4 mps 744 mmHg 88%
    09:00 +18°C° 0 mm 4 mps 744 mmHg 85%
    10:00 +20°C° 0 mm 5 mps 744 mmHg 78%
    11:00 +21°C° 0 mm 5 mps 744 mmHg 72%
    12:00 +23°C° 0 mm 5 mps 744 mmHg 66%
    13:00 +25°C° 0 mm 5 mps 744 mmHg 63%
    14:00 +25°C° 0 mm 5 mps 744 mmHg 59%
    15:00 +25°C° 0 mm 5 mps 744 mmHg 55%
    16:00 +23°C° 0 mm 5 mps 744 mmHg 60%
    17:00 +22°C° 0 mm 4 mps 744 mmHg 65%
    18:00 +20°C° 0 mm 3 mps 744 mmHg 70%
    19:00 +19°C° 0 mm 3 mps 745 mmHg 74%
    20:00 +18°C° 0 mm 3 mps 745 mmHg 79%
    21:00 +16°C° 0 mm 2 mps 745 mmHg 83%
    22:00 +16°C° 0 mm 2 mps 745 mmHg 85%
    23:00 +15°C° 0 mm 2 mps 746 mmHg 87%

    Tomorrow, 21 September, Friday

    Time Temperature Precipitation Wind Pressure Humidity
    00:00 +15°C° 0 mm 2 mps 746 mmHg 90%
    01:00 +15°C° 0 mm 2 mps 746 mmHg 90%
    02:00 +14°C° 0 mm 2 mps 746 mmHg 91%
    03:00 +14°C° 0 mm 2 mps 747 mmHg 92%
    04:00 +14°C° 0 mm 2 mps 747 mmHg 92%
    05:00 +13°C° 0 mm 2 mps 747 mmHg 92%
    06:00 +13°C° 0 mm 2 mps 747 mmHg 92%
    07:00 +15°C° 0 mm 2 mps 747 mmHg 87%
    08:00 +16°C° 0 mm 2 mps 748 mmHg 81%
    09:00 +18°C° 0 mm 2 mps 748 mmHg 76%
    10:00 +19°C° 0 mm 2 mps 748 mmHg 69%
    11:00 +21°C° 0 mm 2 mps 748 mmHg 63%
    12:00 +23°C° 0 mm 2 mps 748 mmHg 56%
    13:00 +24°C° 0 mm 2 mps 748 mmHg 54%
    14:00 +25°C° 0 mm 2 mps 748 mmHg 51%
    15:00 +25°C° 0 mm 2 mps 748 mmHg 49%
    16:00 +24°C° 0 mm 2 mps 748 mmHg 54%
    17:00 +22°C° 0 mm 1 mps 748 mmHg 59%
    18:00 +21°C° 0 mm 1 mps 748 mmHg 64%
    19:00 +20°C° 0 mm 1 mps 748 mmHg 67%
    20:00 +19°C° 0 mm 1 mps 748 mmHg 70%
    21:00 +18°C° 0 mm 1 mps 748 mmHg 73%
    22:00 +17°C° 0 mm 2 mps 748 mmHg 75%
    23:00 +16°C° 0 mm 2 mps 748 mmHg 77%

    Day after tomorrow, 22 September, Saturday

    Time Temperature Precipitation Wind Pressure Humidity
    00:00 +16°C° 0 mm 2 mps 748 mmHg 79%
    01:00 +15°C° 0 mm 2 mps 748 mmHg 80%
    02:00 +15°C° 0 mm 2 mps 748 mmHg 82%
    03:00 +15°C° 0 mm 2 mps 748 mmHg 83%
    04:00 +15°C° 0 mm 2 mps 747 mmHg 84%
    05:00 +14°C° 0 mm 2 mps 747 mmHg 85%
    06:00 +13°C° 0 mm 3 mps 747 mmHg 86%
    07:00 +16°C° 0 mm 3 mps 747 mmHg 81%
    08:00 +17°C° 0 mm 3 mps 747 mmHg 76%
    09:00 +19°C° 0 mm 4 mps 747 mmHg 70%
    10:00 +20°C° 0 mm 4 mps 747 mmHg 65%
    11:00 +22°C° 0 mm 4 mps 746 mmHg 60%
    12:00 +25°C° 0 mm 5 mps 746 mmHg 55%
    13:00 +25°C° 0 mm 5 mps 746 mmHg 54%
    14:00 +25°C° 0 mm 5 mps 745 mmHg 53%
    15:00 +26°C° 0 mm 6 mps 745 mmHg 52%
    16:00 +25°C° 0 mm 5 mps 744 mmHg 57%
    17:00 +22°C° 0 mm 4 mps 744 mmHg 63%
    18:00 +21°C° 0 mm 4 mps 743 mmHg 68%
    19:00 +20°C° 0.1 mm 4 mps 743 mmHg 70%
    20:00 +20°C° 0.1 mm 4 mps 743 mmHg 72%
    21:00 +19°C° 0.1 mm 4 mps 743 mmHg 74%
    22:00 +19°C° 0 mm 5 mps 742 mmHg 73%
    23:00 +17°C° 0 mm 5 mps 742 mmHg 71%

    23 September, Sunday

    Time Temperature Precipitation Wind Pressure Humidity
    00:00 +17°C° 0 mm 5 mps 741 mmHg 69%
    01:00 +17°C° 0.1 mm 5 mps 741 mmHg 69%
    02:00 +17°C° 0.1 mm 5 mps 741 mmHg 69%
    03:00 +16°C° 0.1 mm 5 mps 740 mmHg 68%
    04:00 +16°C° 0.2 mm 5 mps 740 mmHg 71%
    05:00 +15°C° 0.2 mm 4 mps 740 mmHg 74%
    06:00 +15°C° 0.2 mm 4 mps 739 mmHg 77%
    07:00 +15°C° 0.6 mm 4 mps 739 mmHg 78%
    08:00 +15°C° 0.6 mm 4 mps 739 mmHg 79%
    09:00 +16°C° 0.6 mm 3 mps 738 mmHg 80%
    10:00 +14°C° 0.9 mm 4 mps 738 mmHg 82%
    11:00 +13°C° 0.9 mm 5 mps 738 mmHg 83%
    12:00 +12°C° 0.9 mm 5 mps 738 mmHg 84%
    13:00 +10°C° 1.8 mm 6 mps 738 mmHg 86%
    14:00 +8°C° 1.8 mm 6 mps 738 mmHg 87%
    15:00 +7°C° 1.8 mm 6 mps 739 mmHg 89%
    16:00 +8°C° 0.4 mm 5 mps 739 mmHg 88%
    17:00 +8°C° 0.4 mm 5 mps 740 mmHg 87%
    18:00 +10°C° 0.4 mm 4 mps 740 mmHg 86%
    19:00 +10°C° 0 mm 3 mps 740 mmHg 87%
    20:00 +9°C° 0 mm 3 mps 741 mmHg 88%
    21:00 +9°C° 0 mm 3 mps 741 mmHg 89%
    22:00 +8°C° 0 mm 3 mps 741 mmHg 89%
    23:00 +8°C° 0 mm 3 mps 741 mmHg 89%

    24 September, Monday

    Time Temperature Precipitation Wind Pressure Humidity
    00:00 +8°C° 0 mm 3 mps 741 mmHg 89%
    01:00 +8°C° 0 mm 3 mps 741 mmHg 90%
    02:00 +7°C° 0 mm 3 mps 741 mmHg 92%
    03:00 +7°C° 0 mm 3 mps 741 mmHg 93%
    04:00 +7°C° 0 mm 3 mps 741 mmHg 93%
    05:00 +5°C° 0 mm 3 mps 741 mmHg 93%
    06:00 +5°C° 0 mm 3 mps 741 mmHg 93%
    07:00 +7°C° 0 mm 3 mps 741 mmHg 89%
    08:00 +8°C° 0 mm 4 mps 741 mmHg 84%
    09:00 +10°C° 0 mm 4 mps 740 mmHg 79%
    10:00 +10°C° 0 mm 5 mps 740 mmHg 74%
    11:00 +12°C° 0 mm 5 mps 740 mmHg 69%
    12:00 +13°C° 0 mm 6 mps 739 mmHg 63%
    13:00 +11°C° 0.5 mm 6 mps 739 mmHg 69%
    14:00 +10°C° 0.5 mm 6 mps 738 mmHg 74%
    15:00 +10°C° 0.5 mm 6 mps 737 mmHg 80%
    16:00 +9°C° 1.6 mm 8 mps 736 mmHg 81%
    17:00 +8°C° 1.6 mm 9 mps 734 mmHg 83%
    18:00 +8°C° 1.6 mm 10 mps 733 mmHg 85%
    19:00 +8°C° 0.6 mm 10 mps 732 mmHg 85%
    20:00 +9°C° 0.6 mm 10 mps 731 mmHg 85%
    21:00 +9°C° 0.6 mm 10 mps 730 mmHg 85%
    22:00 +9°C° 0.3 mm 10 mps 729 mmHg 84%
    23:00 +10°C° 0.3 mm 9 mps 728 mmHg 83%

    25 September, Tuesday

    Time Temperature Precipitation Wind Pressure Humidity
    00:00 +8°C° 0.3 mm 9 mps 728 mmHg 82%
    01:00 +8°C° 0 mm 9 mps 727 mmHg 82%
    02:00 +7°C° 0 mm 9 mps 726 mmHg 81%
    03:00 +6°C° 0 mm 10 mps 726 mmHg 80%
    04:00 +6°C° 0.3 mm 10 mps 726 mmHg 81%
    05:00 +6°C° 0.3 mm 10 mps 726 mmHg 81%
    06:00 +6°C° 0.3 mm 10 mps 726 mmHg 82%
    07:00 +6°C° 0.2 mm 11 mps 727 mmHg 81%
    08:00 +6°C° 0.2 mm 11 mps 727 mmHg 80%
    09:00 +4°C° 0.2 mm 11 mps 728 mmHg 79%
    10:00 +4°C° 0.1 mm 11 mps 729 mmHg 78%
    11:00 +4°C° 0.1 mm 11 mps 730 mmHg 77%
    12:00 +6°C° 0.1 mm 11 mps 731 mmHg 76%
    13:00 +6°C° 0.2 mm 11 mps 732 mmHg 76%
    14:00 +6°C° 0.2 mm 10 mps 734 mmHg 76%
    15:00 +6°C° 0.2 mm 10 mps 735 mmHg 75%
    16:00 +5°C° 0 mm 10 mps 735 mmHg 75%
    17:00 +5°C° 0 mm 9 mps 736 mmHg 74%
    18:00 +5°C° 0 mm 9 mps 737 mmHg 73%
    19:00 +5°C° 0 mm 8 mps 738 mmHg 74%
    20:00 +5°C° 0 mm 8 mps 739 mmHg 75%
    21:00 +4°C° 0 mm 7 mps 740 mmHg 76%
    22:00 +4°C° 0 mm 7 mps 740 mmHg 77%
    23:00 +3°C° 0 mm 6 mps 741 mmHg 78%
    Show more